TimeICT,TemperatureF,Dew PointF,Humidity,Sea Level PressureIn,VisibilityMPH,Wind Direction,Wind SpeedMPH,Gust SpeedMPH,PrecipitationIn,Events,Conditions,WindDirDegrees,DateUTC
12:00 AM,78.8,69.8,74,29.80,5.6,Variable,2.3,-,N/A,,Unknown,0,2013-02-14 17:00:00
12:30 AM,78.8,69.8,74,29.80,5.6,Variable,2.3,-,N/A,,Unknown,0,2013-02-14 17:30:00
1:00 AM,78.8,69.8,74,29.80,5.6,Variable,2.3,-,N/A,,Unknown,0,2013-02-14 18:00:00
7:00 AM,78.8,66.2,65,29.80,3.7,Calm,Calm,-,N/A,,Scattered Clouds,0,2013-02-15 00:00:00
7:30 AM,80.6,68.0,65,29.80,3.7,East,4.6,-,N/A,,Scattered Clouds,80,2013-02-15 00:30:00
8:00 AM,80.6,68.0,65,29.83,3.7,East,6.9,-,N/A,,Scattered Clouds,80,2013-02-15 01:00:00
8:30 AM,82.4,68.0,62,29.83,3.7,East,9.2,-,N/A,,Scattered Clouds,100,2013-02-15 01:30:00
9:00 AM,84.2,69.8,62,29.83,3.7,ESE,13.8,-,N/A,,Scattered Clouds,110,2013-02-15 02:00:00
9:30 AM,86.0,69.8,58,29.83,5.0,East,12.7,-,N/A,,Scattered Clouds,100,2013-02-15 02:30:00
10:00 AM,87.8,69.8,55,29.83,5.0,ESE,11.5,-,N/A,,Scattered Clouds,120,2013-02-15 03:00:00
10:30 AM,89.6,68.0,49,29.83,5.6,SE,11.5,-,N/A,,Scattered Clouds,130,2013-02-15 03:30:00
11:00 AM,89.6,68.0,49,29.83,5.6,SE,10.4,-,N/A,,Scattered Clouds,140,2013-02-15 04:00:00
11:30 AM,89.6,68.0,49,29.83,5.6,ESE,9.2,-,N/A,,Partly Cloudy,120,2013-02-15 04:30:00
12:00 PM,91.4,68.0,46,29.80,6.2,SSE,6.9,-,N/A,,Partly Cloudy,150,2013-02-15 05:00:00
12:30 PM,91.4,66.2,43,29.80,6.2,East,5.8,-,N/A,,Partly Cloudy,90,2013-02-15 05:30:00
1:00 PM,93.2,66.2,41,29.77,6.2,ESE,5.8,-,N/A,,Partly Cloudy,120,2013-02-15 06:00:00
1:30 PM,93.2,69.8,46,29.77,6.2,South,8.1,-,N/A,,Partly Cloudy,190,2013-02-15 06:30:00
2:00 PM,91.4,69.8,49,29.74,6.2,South,11.5,-,N/A,,Partly Cloudy,180,2013-02-15 07:00:00
2:30 PM,91.4,71.6,52,29.74,6.2,SSW,11.5,-,N/A,,Partly Cloudy,200,2013-02-15 07:30:00
3:00 PM,91.4,71.6,52,29.71,6.2,South,11.5,-,N/A,,Partly Cloudy,190,2013-02-15 08:00:00
3:30 PM,91.4,71.6,52,29.71,6.2,South,11.5,-,N/A,,Partly Cloudy,180,2013-02-15 08:30:00
4:00 PM,89.6,71.6,55,29.71,6.2,SSW,11.5,-,N/A,,Partly Cloudy,200,2013-02-15 09:00:00
4:30 PM,89.6,69.8,52,29.71,6.2,SSW,9.2,-,N/A,,Partly Cloudy,200,2013-02-15 09:30:00
5:00 PM,89.6,69.8,52,29.71,6.2,SSW,9.2,-,N/A,,Partly Cloudy,200,2013-02-15 10:00:00
5:30 PM,89.6,69.8,52,29.71,5.6,SSW,6.9,-,N/A,,Unknown,200,2013-02-15 10:30:00
6:00 PM,87.8,69.8,55,29.71,5.6,SSW,4.6,-,N/A,,Unknown,200,2013-02-15 11:00:00
6:30 PM,86.0,71.6,62,29.71,5.6,Variable,2.3,-,N/A,,Unknown,0,2013-02-15 11:30:00
7:00 PM,84.2,73.4,70,29.74,5.6,Calm,Calm,-,N/A,,Unknown,0,2013-02-15 12:00:00
7:30 PM,84.2,73.4,70,29.74,5.6,Calm,Calm,-,N/A,,Unknown,0,2013-02-15 12:30:00
8:00 PM,82.4,75.2,79,29.74,5.0,Calm,Calm,-,N/A,,Unknown,0,2013-02-15 13:00:00
8:30 PM,82.4,75.2,79,29.77,5.0,Variable,2.3,-,N/A,,Unknown,0,2013-02-15 13:30:00
9:00 PM,82.4,73.4,74,29.77,5.0,Variable,2.3,-,N/A,,Unknown,0,2013-02-15 14:00:00
9:30 PM,82.4,73.4,74,29.77,5.0,Variable,2.3,-,N/A,,Unknown,0,2013-02-15 14:30:00
10:00 PM,82.4,73.4,74,29.80,5.0,Variable,2.3,-,N/A,,Unknown,0,2013-02-15 15:00:00
10:30 PM,80.6,73.4,79,29.80,5.0,Variable,1.2,-,N/A,,Unknown,0,2013-02-15 15:30:00
11:00 PM,80.6,73.4,79,29.80,5.0,Variable,2.3,-,N/A,,Unknown,0,2013-02-15 16:00:00
11:30 PM,80.6,73.4,79,29.80,5.0,Variable,1.2,-,N/A,,Unknown,0,2013-02-15 16:30:00